Meath Environmental Platform

Observations for Trim Market St

Time AQI Temp °C Hum % Pres Pa CO μg/m³ H₂S μg/m³ NO μg/m³ NO₂ μg/m³ O₃ μg/m³ SO₂ μg/m³ PM1 μg/m³ PM2.5 μg/m³ PM10 μg/m³
Friday 21 August 2026
12:33 2 29 35 65,803 0.12 0 1.39 13.28 68.19 0 0 2.57 2.83
12:32 2 28.8 35 65,799 0.19 0 1.37 13.37 66.19 0 0 2.56 2.81
12:31 2 28.6 35 65,797 0.17 0 1.37 16.78 74.25 0 0 2.56 2.82
12:30 2 28.4 36 65,791 0.2 0 1.34 12.93 60.6 0 0 2.54 2.79
12:29 2 28.1 36 65,756 0.2 0 1.37 16.58 73.2 0 0 2.52 2.78
12:28 2 27.9 36 65,742 0.26 0 1.35 13.23 55.77 0 0 3.04 3.35
12:26 2 27.4 37 65,696 0.59 0 1.38 30.73 76.47 0 0 3.02 3.33
12:25 2 27.3 36 65,668 0.99 0 1.33 51.34 70.18 0 0 3.57 3.92
12:24 2 27.1 37 65,635 0.47 0 1.33 23.37 81.11 0 0 2.49 2.73
12:20 2 26.4 38 65,598 0.2 0 1.37 16.53 70.52 0 0 2.44 2.69
12:10 2 25.1 40 65,495 0.07 0 1.6 19.7 70.59 0 0 2.37 2.61
12:09 2 25 40 65,487 0.02 0 1.61 15.13 71.31 0 0 2.37 2.6
12:08 2 24.9 40 65,475 0.02 0 1.62 12.64 70.23 0 0 2.36 2.59
12:06 2 24.7 40 65,441 0.11 0 1.48 14.95 70.51 0 0 2.36 2.59
12:05 2 24.6 40 65,423 0.13 0 1.62 12.47 68.61 0 0 2.88 3.17
12:04 2 24.5 40 65,396 0.04 0 1.42 14.74 73.45 0 0 2.88 3.17
12:02 2 24.3 40 65,386 0.18 0 1.25 12.17 68.69 0 0.71 2.86 3.15
12:01 2 24.2 41 65,348 0.09 0 1.26 12.38 69.34 0 0 2.33 2.56
12:00 2 24.2 41 65,297 0.04 0 1.12 13.41 77.16 0 0 2.32 2.55
11:59 2 24.1 41 65,295 0.12 0 1.15 12.16 66.43 0 0 2.31 2.73